Torna al catalogo

STARLINK-32426

AttivoComunicazioniVLEO
NORAD 61681·PAYLOAD·🇺🇸 United States

Lanciato Oct 26, 2024 da Cape Canaveral Space Force Station

Loading…

Prossimi Passaggi (prossime 24 ore)

TLE

AggiornatoSource: CelesTrak SupGP

Epoca: Sep 15, 2026, 02:10 UTC

1 61681C 24193W   26258.09076389  .00025713  00000+0  75956-3 0  2586
2 61681  53.1577 290.9228 0001008  93.5836 115.6812 15.34384219    12

Traccia STARLINK-32426 in tempo reale con AllMySat

Download on the App Store